CZ-6A DEB, 55882

Orbit data source: Space-Track

CZ-6A DEB, 55882 is space debris in SSO originally from a launch on Fri, 11 Nov 2022 UTC launched from the Taiyaun Space Center, China (TSC). Debris objects in space refer to the collection of defunct objects orbiting the Earth. Examples of debris include non-operational satellites, rocket bodies, and fragments generated from explosions, collisions, or faulty payload assembly.

Loading next visibility...
Identifier
55882, 2022-151AAE
Orbit
SSO
Country
Flag of CNCN / PRC
Related business
Manufacturer
SAST
Mission
Spacecraft
Bus & Motor
Unknown
Mass
Unknown
Launch date (UTC)
2022-11-11 (4 years ago)
Launch vehicle
Unknown
Launch site
Taiyaun Space Center, China (TSC)
Object type
Payload
Rocket body
Debris
Shape & HBR
Unknown shape, 0.1 m
Radar Cross Section
Small (<0.1 m²)

Expand to show TLE details & history
Last TLE update: 17 hours ago

TLE from 17 hours ago
0 CZ-6A DEB
1 55882U 22151AAE 26236.44709469  .00001125  00000-0  58610-3 0  9993
2 55882  98.8270 239.2876 0047871 137.7146 222.7734 14.16008853182742
Epoch: 2026-08-24T10:43Z
TLE epoch observation values (Epoch: 2026-08-24T10:43:48.981Z)
Latitude
-0.00005°
Longitude
105.60485°
Altitude
867.229 km
Speed
7.406 km/s
True Right ascension
15h 57m 09s
True Declination
0° 00' 00"
Sunlit
Object was in daylight at epoch
Visualization orbit readout
Latitude
Unknown
Longitude
Unknown
Altitude
Unknown
Speed
Unknown
Apparent Right ascension
Unknown
Apparent Declination
Unknown
Sunlit
N/A
Visualization observer readout
Local Sidereal Time
19:26:50
Azimuth
Unknown
Elevation
Unknown
Doppler factor
Unknown
Orbital elements
Apogee altitude
870.587 km
Perigee altitude
801.517 km
Semi-major axis
7,214.189 km
Eccentricity
0.00479
Inclination
98.827°
RAAN
239.2876°
Arg. of periapsis
137.7146°
True anomaly
222.4025°
Mean anomaly
222.7734°
Eccentric anomaly
222.58779°
Mean motion
3.54211 °/min
Orbital period
101.63 mins
BSTAR
0.0005861
Loading maneuver chart data...
Computing Atmospheric mass density...
Loading historical data...
Loading historical data...
Loading historical data...
Loading historical data...
Loading historical data...
Loading historical data...
Loading historical data...

Documentation

Showing up to 5 results
|